Погода в Слесине

Польша     52°22′57″N   18°19′01″E
темп.,
°C
ветер,
м/с
пор.,
м/с
влажн.,
%
обл.,
%
осадки,
мм/ч
давл.,
гПа
погр.,
м
28 февраля, вс
вс2801:000зсз36860 0.0 1035103
04:00+1з498264 0.0 1034223
07:00+1з599433 0.0 1034271
10:00+3з698954 0.0 1033406
13:00+5зсз698577 0.0 1032540
16:00+4сз5886100 0.0 1032612
19:00+4сз4888100 0.0 1033394
22:00+1ссз37957 0.0 1034168
1 марта, пн
пн101:000ссз23943 0.0 103537
04:00+1сз23930 0.0 103430
07:00+1зсз23920 0.0 103537
10:00+5зюз23720 0.0 1035255
13:00+9зюз35630 0.0 1035473
16:00+8зюз36700 0.0 1033419
19:00+5зюз44860 0.0 103485
22:00+3з46880 0.0 1034105
2 марта, вт
вт201:00+2з36900 0.0 1034106
04:00+1з47890 0.0 1032131
07:00+1з48910 0.0 1032147
10:00+6зсз57770 0.0 1033375
13:00+9зсз57670 0.0 1032616
16:00+9зсз47690 0.0 1031654
19:00+5зсз34850 0.0 103165
22:00+4сз33890 0.0 103242
3 марта, ср
ср301:00+2сз23900 0.0 103222
04:00+1зсз23900 0.0 103126
07:00+1зсз23910 0.0 103131
10:00+6зсз34710 0.0 1031350
13:00+10зсз33553 0.0 1029564
16:00+10з23580 0.0 1027163
19:00+6зюз22730 0.0 102622
22:00+5юз23800 0.0 102522
4 марта, чт
чт401:00+3юз34845 0.0 102241
04:00+3юз348760 0.0 102061
07:00+3юз469175 0.0 1017116
10:00+7зюз477981 0.0 1016334
13:00+10з586988 0.0 1013764
16:00+10зюз477095 0.0 1011568
19:00+8зюз487997 0.1 1010224
22:00+5ссз61087100 0.7 1009557